Onweer radar Meer informatie blitzortung!


Regen radar Meer informatie rain snow radar


Bezoek onze andere website:

Template documentation
and downloads

And another site



Het weer levert geen direct gevaar op.    Er zijn geen waarschuwingen afgegeven.

Select another period ( hide this area )

Eenheden Periode Custom range Directly to
Metrisch Engels Beide
Dagelijkse Wekelijkse Maandelijkse Jaarlijkse
use both date-selectors for a custom range
previous Dag
With this date

WeatherUnderground graphs for this period ( click here )


Dagelijkse Samenvatting Zondag 22 september 2019
Tijd Temp. ( °C ) Dew pt. ( °C ) Wind ( km/h ) van Windvlaag ( km/h ) Luchtdruk ( hPa ) Humid.( % ) Rainrate ( cm )
Hoog25,6 10,2 13,0 ONO ( 89/263 ) 20,9 1011,7 49 -
Gemiddeld18,2 5,3 1,6 Kalm #104/165 4,2 1009,1 43 -
Laag14,7 2,4 -   0,0 1006,7 37 -
Dagelijkse Tabular details for Zondag 22 september 2019
Tijd Temp. ( °C ) Dew pt. ( °C ) Wind ( km/h ) van Windvlaag ( km/h ) Luchtdruk ( hPa ) Humid.( % ) Rainrate ( cm )
00:04 18,3 3,4   Kalm 3,2 1011,7 37 -
00:09 18,3 3,4   Kalm 8,0 1011,7 37 -
00:15 18,1 3,6   Kalm 3,2 1011,4 38 -
00:20 17,9 3,4   Kalm 1,6 1011,4 38 -
00:25 17,7 3,6   Kalm 1,6 1011,4 39 -
00:30 17,4 3,7   Kalm   1011,4 40 -
00:35 17,2 3,5   Kalm   1011,4 40 -
00:40 17,2 3,5   Kalm   1011,4 40 -
00:46 17,1 3,4   Kalm   1011,4 40 -
00:51 16,8 3,5   Kalm 3,2 1011,4 41 -
00:56 16,8 3,1   Kalm 1,6 1011,4 40 -
01:01 16,7 3,4   Kalm 3,2 1011,1 41 -
01:07 16,6 3,3   Kalm   1011,1 41 -
01:12 16,6 3,3   Kalm   1011,1 41 -
01:17 16,5 3,2   Kalm 1,6 1011,1 41 -
01:22 16,3 3,7   Kalm   1011,1 43 -
01:28 16,3 3,4   Kalm 3,2 1011,1 42 -
01:33 16,2 3,3   Kalm 1,6 1011,1 42 -
01:38 16,2 3,3   Kalm 1,6 1011,1 42 -
01:44 16,2 3,3   Kalm   1011,1 42 -
01:49 16,2 3,3   Kalm   1011,1 42 -
01:54 16,1 3,2   Kalm   1011,1 42 -
02:00 15,9 3,0   Kalm   1011,1 42 -
02:05 15,9 3,0   Kalm   1011,1 42 -
02:10 15,9 3,0   Kalm   1011,1 42 -
02:15 15,9 3,0   Kalm   1011,1 42 -
02:21 15,8 2,9   Kalm   1011,1 42 -
02:26 15,7 2,8   Kalm   1011,1 42 -
02:31 15,7 2,8   Kalm   1011,1 42 -
02:36 15,7 2,8   Kalm   1011,1 42 -
02:41 15,6 2,7   Kalm   1010,7 42 -
02:46 15,6 2,7   Kalm   1010,7 42 -
02:51 15,5 3,0   Kalm   1010,7 43 -
02:57 15,5 2,6   Kalm   1010,7 42 -
03:02 15,4 2,9   Kalm   1010,7 43 -
03:07 15,4 2,9   Kalm   1010,7 43 -
03:12 15,4 2,9   Kalm   1010,7 43 -
03:17 15,2 2,7   Kalm   1010,4 43 -
03:23 15,2 2,7   Kalm   1010,4 43 -
03:28 15,2 2,7   Kalm   1010,4 43 -
03:33 15,2 3,0   Kalm   1010,4 44 -
03:38 15,2 2,7   Kalm   1010,0 43 -
03:43 15,3 2,8   Kalm   1010,0 43 -
03:48 15,2 2,7   Kalm   1010,0 43 -
03:54 15,1 2,6   Kalm   1010,0 43 -
03:59 15,0 2,8   Kalm   1010,0 44 -
04:04 15,2 2,7   Kalm   1010,0 43 -
04:09 15,2 2,7   Kalm   1010,0 43 -
04:14 15,2 2,4   Kalm   1010,0 42 -
04:19 15,3 2,8   Kalm   1009,7 43 -
04:24 15,2 2,7   Kalm   1009,7 43 -
04:29 15,2 2,7   Kalm   1009,7 43 -
04:35 15,2 2,4   Kalm   1009,7 42 -
04:40 15,2 2,7   Kalm   1009,7 43 -
04:45 15,2 2,7   Kalm   1009,7 43 -
04:50 15,1 2,9   Kalm   1009,7 44 -
04:55 14,9 2,8 1,4 NNO 1,6 1009,7 44 -
05:00 14,9 2,8   Kalm   1009,4 44 -
05:05 15,1 2,6   Kalm 6,4 1009,4 43 -
05:10 15,1 2,6   Kalm 1,6 1009,4 43 -
05:15 15,0 2,8   Kalm   1009,4 44 -
05:20 14,9 2,8   Kalm   1009,4 44 -
05:25 14,8 2,7   Kalm   1009,4 44 -
05:31 14,8 2,7   Kalm 1,6 1009,0 44 -
05:36 14,7 2,9   Kalm   1009,0 45 -
05:41 14,7 2,9 1,4 Noorden 1,6 1009,0 45 -
05:46 14,8 3,0   Kalm 1,6 1009,0 45 -
05:51 14,8 2,7   Kalm 1,6 1009,0 44 -
05:56 14,8 3,0   Kalm   1009,0 45 -
06:01 14,8 2,7 3,2 Noorden 6,4 1009,0 44 -
06:06 14,9 2,8   Kalm 1,6 1009,0 44 -
06:11 14,8 2,7   Kalm 1,6 1009,0 44 -
06:16 14,8 3,0   Kalm 3,2 1009,0 45 -
06:21 14,9 3,1   Kalm 3,2 1009,0 45 -
06:27 14,9 3,1   Kalm 1,6 1009,0 45 -
06:32 14,9 3,1 1,4 NO 3,2 1008,7 45 -
06:37 15,1 2,9 1,4 NNW 6,4 1008,7 44 -
06:42 15,3 3,1   Kalm 8,0 1008,7 44 -
06:47 15,2 3,0   Kalm 3,2 1008,7 44 -
06:53 15,1 3,3   Kalm 1,6 1008,7 45 -
06:58 15,2 3,3   Kalm 3,2 1008,4 45 -
07:03 15,3 3,4   Kalm 1,6 1008,4 45 -
07:08 15,3 3,4   Kalm 3,2 1008,4 45 -
07:13 15,3 3,7   Kalm 1,6 1008,7 46 -
07:18 15,2 3,7   Kalm 1,6 1008,7 46 -
07:23 15,1 3,6   Kalm 1,6 1008,7 46 -
07:29 15,1 3,6   Kalm   1008,7 46 -
07:34 15,0 3,8   Kalm   1008,7 47 -
07:39 14,9 3,7   Kalm   1008,7 47 -
07:44 14,8 3,9   Kalm   1008,7 48 -
07:49 14,9 4,0   Kalm   1008,7 48 -
07:54 15,0 4,4   Kalm   1008,7 49 -
07:59 15,1 4,5   Kalm   1008,7 49 -
08:04 15,3 4,6   Kalm   1008,4 49 -
08:10 15,6 4,9   Kalm   1008,4 49 -
08:15 15,7 5,0   Kalm   1008,4 49 -
08:20 15,7 5,0   Kalm 1,6 1008,4 49 -
08:25 15,8 5,1   Kalm 1,6 1008,4 49 -
08:30 16,2 5,5   Kalm 6,4 1008,4 49 -
08:35 16,4 5,4 1,4 NW 6,4 1008,4 48 -
08:41 16,7 5,3 1,4 NNO 11,3 1008,4 47 -
08:46 16,9 5,5 1,4 NNO 1,6 1008,4 47 -
08:51 17,2 5,8   Kalm 1,6 1008,4 47 -
08:56 17,4 6,0   Kalm 3,2 1008,4 47 -
09:01 17,5 6,1 1,4 NO 3,2 1008,4 47 -
09:06 17,5 6,1   Kalm 3,2 1008,4 47 -
09:11 17,6 6,2   Kalm 3,2 1008,4 47 -
09:16 18,0 6,5 6,4 ONO 6,4 1008,4 47 -
09:21 18,4 6,6   Kalm 1,6 1008,4 46 -
09:26 18,8 6,6 1,4 NO 3,2 1008,4 45 -
09:31 19,1 6,9   Kalm 3,2 1008,4 45 -
09:36 19,4 6,8   Kalm 6,4 1008,4 44 -
09:41 19,8 6,9 1,4 ONO 3,2 1008,4 43 -
09:46 20,0 7,0 1,4 NNO 6,4 1008,4 43 -
09:51 20,3 7,3 3,2 NW 6,4 1008,4 43 -
09:56 20,5 7,5   Kalm 9,7 1008,4 43 -
10:01 20,8 7,8 11,1 ONO 12,9 1008,4 43 -
10:06 21,0 7,6 3,2 NNO 6,4 1008,4 42 -
10:11 21,5 7,7 1,4 Oosten 6,4 1008,4 41 -
10:16 21,6 7,8 1,4 NNO 6,4 1008,4 41 -
10:21 21,6 7,8 3,2 NO 6,4 1008,4 41 -
10:26 21,4 8,0 1,4 Oosten 11,3 1008,4 42 -
10:31 22,0 8,1 3,2 ONO 11,3 1008,4 41 -
10:36 22,4 8,5 1,4 Oosten 6,4 1008,4 41 -
10:41 22,6 8,3 6,4 Noorden 9,7 1008,0 40 -
10:46 22,7 8,4 4,7 NNW 20,9 1008,0 40 -
10:51 22,7 8,4 1,4 ONO 17,7 1008,0 40 -
10:57 22,9 8,6 3,2 Oosten 9,7 1008,0 40 -
11:02 23,3 8,6 3,2 ONO 14,5 1008,0 39 -
11:07 23,4 9,0 4,7 Oosten 8,0 1008,0 40 -
11:12 23,7 8,9 3,2 Oosten 12,9 1008,0 39 -
11:17 23,7 8,9 9,7 ONO 11,3 1008,0 39 -
11:22 23,8 9,0 6,4 NO 8,0 1008,0 39 -
11:27 24,1 9,3   Kalm 6,4 1008,0 39 -
11:32 24,0 9,2 6,4 ONO 12,9 1007,7 39 -
11:37 23,8 9,0 1,4 NO 8,0 1007,7 39 -
11:42 23,7 8,9 3,2 Oosten 11,3 1007,7 39 -
11:47 23,6 9,2 6,4 ONO 6,4 1007,7 40 -
11:52 23,4 9,4 3,2 Noorden 8,0 1007,7 41 -
11:57 23,3 9,3 6,4 Noorden 12,9 1007,7 41 -
12:02 23,2 9,6 6,4 NNO 9,7 1007,7 42 -
12:07 23,3 9,3 4,7 Oosten 8,0 1007,7 41 -
12:12 23,5 9,5   Kalm 6,4 1007,7 41 -
12:17 23,6 9,6 1,4 NNW 8,0 1007,3 41 -
12:22 23,6 9,2 9,7 NNW 16,1 1007,3 40 -
12:27 23,3 9,3 3,2 NNW 8,0 1007,3 41 -
12:32 23,3 9,7 4,7 Oosten 14,5 1007,3 42 -
12:37 23,4 9,4 1,4 NO 6,4 1007,3 41 -
12:42 23,5 9,5 1,4 NO 9,7 1007,3 41 -
12:47 23,8 9,4 7,9 ONO 8,0 1007,3 40 -
12:52 23,8 9,8 6,4 OZO 9,7 1007,3 41 -
12:57 23,8 9,8 7,9 OZO 11,3 1007,3 41 -
13:02 23,9 10,2 3,2 NO 11,3 1007,3 42 -
13:07 24,3 9,8 6,4 ONO 14,5 1007,3 40 -
13:12 24,5 10,0 3,2 ZO 9,7 1007,3 40 -
13:17 25,1 10,2 1,4 Noorden 6,4 1007,3 39 -
13:22 25,3 10,0 13,0 ONO 12,9 1007,3 38 -
13:28 24,9 9,6 9,7 Noorden 14,5 1007,3 38 -
13:33 25,1 10,2 3,2 ONO 9,7 1007,3 39 -
13:38 25,1 9,8 9,7 ONO 12,9 1007,0 38 -
13:43 25,1 10,2 9,7 NNW 9,7 1007,0 39 -
13:48 25,6 10,2 7,9 Oosten 9,7 1007,0 38 -
13:53 25,3 10,0 4,7 NW 8,0 1007,0 38 -
13:58 25,1 9,8 3,2 Noorden 9,7 1006,7 38 -
14:03 24,9 10,0 7,9 NNO 9,7 1006,7 39 -
Dagelijkse Samenvatting Zondag 22 september 2019
Tijd Temp. ( °C ) Dew pt. ( °C ) Wind ( km/h ) van Windvlaag ( km/h ) Luchtdruk ( hPa ) Humid.( % ) Rainrate ( cm )
Hoog25,6 10,2 13,0 ONO ( 89/263 ) 20,9 1011,7 49 -
Gemiddeld18,2 5,3 1,6 Kalm #104/165 4,2 1009,1 43 -
Laag14,7 2,4 -   0,0 1006,7 37 -
Dagelijkse Tabular details for Zondag 22 september 2019
Tijd Temp. ( °C ) Dew pt. ( °C ) Wind ( km/h ) van Windvlaag ( km/h ) Luchtdruk ( hPa ) Humid.( % ) Rainrate ( cm )
00:04 18,3 3,4   Kalm 3,2 1011,7 37 -
00:09 18,3 3,4   Kalm 8,0 1011,7 37 -
00:15 18,1 3,6   Kalm 3,2 1011,4 38 -
00:20 17,9 3,4   Kalm 1,6 1011,4 38 -
00:25 17,7 3,6   Kalm 1,6 1011,4 39 -
00:30 17,4 3,7   Kalm   1011,4 40 -
00:35 17,2 3,5   Kalm   1011,4 40 -
00:40 17,2 3,5   Kalm   1011,4 40 -
00:46 17,1 3,4   Kalm   1011,4 40 -
00:51 16,8 3,5   Kalm 3,2 1011,4 41 -
00:56 16,8 3,1   Kalm 1,6 1011,4 40 -
01:01 16,7 3,4   Kalm 3,2 1011,1 41 -
01:07 16,6 3,3   Kalm   1011,1 41 -
01:12 16,6 3,3   Kalm   1011,1 41 -
01:17 16,5 3,2   Kalm 1,6 1011,1 41 -
01:22 16,3 3,7   Kalm   1011,1 43 -
01:28 16,3 3,4   Kalm 3,2 1011,1 42 -
01:33 16,2 3,3   Kalm 1,6 1011,1 42 -
01:38 16,2 3,3   Kalm 1,6 1011,1 42 -
01:44 16,2 3,3   Kalm   1011,1 42 -
01:49 16,2 3,3   Kalm   1011,1 42 -
01:54 16,1 3,2   Kalm   1011,1 42 -
02:00 15,9 3,0   Kalm   1011,1 42 -
02:05 15,9 3,0   Kalm   1011,1 42 -
02:10 15,9 3,0   Kalm   1011,1 42 -
02:15 15,9 3,0   Kalm   1011,1 42 -
02:21 15,8 2,9   Kalm   1011,1 42 -
02:26 15,7 2,8   Kalm   1011,1 42 -
02:31 15,7 2,8   Kalm   1011,1 42 -
02:36 15,7 2,8   Kalm   1011,1 42 -
02:41 15,6 2,7   Kalm   1010,7 42 -
02:46 15,6 2,7   Kalm   1010,7 42 -
02:51 15,5 3,0   Kalm   1010,7 43 -
02:57 15,5 2,6   Kalm   1010,7 42 -
03:02 15,4 2,9   Kalm   1010,7 43 -
03:07 15,4 2,9   Kalm   1010,7 43 -
03:12 15,4 2,9   Kalm   1010,7 43 -
03:17 15,2 2,7   Kalm   1010,4 43 -
03:23 15,2 2,7   Kalm   1010,4 43 -
03:28 15,2 2,7   Kalm   1010,4 43 -
03:33 15,2 3,0   Kalm   1010,4 44 -
03:38 15,2 2,7   Kalm   1010,0 43 -
03:43 15,3 2,8   Kalm   1010,0 43 -
03:48 15,2 2,7   Kalm   1010,0 43 -
03:54 15,1 2,6   Kalm   1010,0 43 -
03:59 15,0 2,8   Kalm   1010,0 44 -
04:04 15,2 2,7   Kalm   1010,0 43 -
04:09 15,2 2,7   Kalm   1010,0 43 -
04:14 15,2 2,4   Kalm   1010,0 42 -
04:19 15,3 2,8   Kalm   1009,7 43 -
04:24 15,2 2,7   Kalm   1009,7 43 -
04:29 15,2 2,7   Kalm   1009,7 43 -
04:35 15,2 2,4   Kalm   1009,7 42 -
04:40 15,2 2,7   Kalm   1009,7 43 -
04:45 15,2 2,7   Kalm   1009,7 43 -
04:50 15,1 2,9   Kalm   1009,7 44 -
04:55 14,9 2,8 1,4 NNO 1,6 1009,7 44 -
05:00 14,9 2,8   Kalm   1009,4 44 -
05:05 15,1 2,6   Kalm 6,4 1009,4 43 -
05:10 15,1 2,6   Kalm 1,6 1009,4 43 -
05:15 15,0 2,8   Kalm   1009,4 44 -
05:20 14,9 2,8   Kalm   1009,4 44 -
05:25 14,8 2,7   Kalm   1009,4 44 -
05:31 14,8 2,7   Kalm 1,6 1009,0 44 -
05:36 14,7 2,9   Kalm   1009,0 45 -
05:41 14,7 2,9 1,4 Noorden 1,6 1009,0 45 -
05:46 14,8 3,0   Kalm 1,6 1009,0 45 -
05:51 14,8 2,7   Kalm 1,6 1009,0 44 -
05:56 14,8 3,0   Kalm   1009,0 45 -
06:01 14,8 2,7 3,2 Noorden 6,4 1009,0 44 -
06:06 14,9 2,8   Kalm 1,6 1009,0 44 -
06:11 14,8 2,7   Kalm 1,6 1009,0 44 -
06:16 14,8 3,0   Kalm 3,2 1009,0 45 -
06:21 14,9 3,1   Kalm 3,2 1009,0 45 -
06:27 14,9 3,1   Kalm 1,6 1009,0 45 -
06:32 14,9 3,1 1,4 NO 3,2 1008,7 45 -
06:37 15,1 2,9 1,4 NNW 6,4 1008,7 44 -
06:42 15,3 3,1   Kalm 8,0 1008,7 44 -
06:47 15,2 3,0   Kalm 3,2 1008,7 44 -
06:53 15,1 3,3   Kalm 1,6 1008,7 45 -
06:58 15,2 3,3   Kalm 3,2 1008,4 45 -
07:03 15,3 3,4   Kalm 1,6 1008,4 45 -
07:08 15,3 3,4   Kalm 3,2 1008,4 45 -
07:13 15,3 3,7   Kalm 1,6 1008,7 46 -
07:18 15,2 3,7   Kalm 1,6 1008,7 46 -
07:23 15,1 3,6   Kalm 1,6 1008,7 46 -
07:29 15,1 3,6   Kalm   1008,7 46 -
07:34 15,0 3,8   Kalm   1008,7 47 -
07:39 14,9 3,7   Kalm   1008,7 47 -
07:44 14,8 3,9   Kalm   1008,7 48 -
07:49 14,9 4,0   Kalm   1008,7 48 -
07:54 15,0 4,4   Kalm   1008,7 49 -
07:59 15,1 4,5   Kalm   1008,7 49 -
08:04 15,3 4,6   Kalm   1008,4 49 -
08:10 15,6 4,9   Kalm   1008,4 49 -
08:15 15,7 5,0   Kalm   1008,4 49 -
08:20 15,7 5,0   Kalm 1,6 1008,4 49 -
08:25 15,8 5,1   Kalm 1,6 1008,4 49 -
08:30 16,2 5,5   Kalm 6,4 1008,4 49 -
08:35 16,4 5,4 1,4 NW 6,4 1008,4 48 -
08:41 16,7 5,3 1,4 NNO 11,3 1008,4 47 -
08:46 16,9 5,5 1,4 NNO 1,6 1008,4 47 -
08:51 17,2 5,8   Kalm 1,6 1008,4 47 -
08:56 17,4 6,0   Kalm 3,2 1008,4 47 -
09:01 17,5 6,1 1,4 NO 3,2 1008,4 47 -
09:06 17,5 6,1   Kalm 3,2 1008,4 47 -
09:11 17,6 6,2   Kalm 3,2 1008,4 47 -
09:16 18,0 6,5 6,4 ONO 6,4 1008,4 47 -
09:21 18,4 6,6   Kalm 1,6 1008,4 46 -
09:26 18,8 6,6 1,4 NO 3,2 1008,4 45 -
09:31 19,1 6,9   Kalm 3,2 1008,4 45 -
09:36 19,4 6,8   Kalm 6,4 1008,4 44 -
09:41 19,8 6,9 1,4 ONO 3,2 1008,4 43 -
09:46 20,0 7,0 1,4 NNO 6,4 1008,4 43 -
09:51 20,3 7,3 3,2 NW 6,4 1008,4 43 -
09:56 20,5 7,5   Kalm 9,7 1008,4 43 -
10:01 20,8 7,8 11,1 ONO 12,9 1008,4 43 -
10:06 21,0 7,6 3,2 NNO 6,4 1008,4 42 -
10:11 21,5 7,7 1,4 Oosten 6,4 1008,4 41 -
10:16 21,6 7,8 1,4 NNO 6,4 1008,4 41 -
10:21 21,6 7,8 3,2 NO 6,4 1008,4 41 -
10:26 21,4 8,0 1,4 Oosten 11,3 1008,4 42 -
10:31 22,0 8,1 3,2 ONO 11,3 1008,4 41 -
10:36 22,4 8,5 1,4 Oosten 6,4 1008,4 41 -
10:41 22,6 8,3 6,4 Noorden 9,7 1008,0 40 -
10:46 22,7 8,4 4,7 NNW 20,9 1008,0 40 -
10:51 22,7 8,4 1,4 ONO 17,7 1008,0 40 -
10:57 22,9 8,6 3,2 Oosten 9,7 1008,0 40 -
11:02 23,3 8,6 3,2 ONO 14,5 1008,0 39 -
11:07 23,4 9,0 4,7 Oosten 8,0 1008,0 40 -
11:12 23,7 8,9 3,2 Oosten 12,9 1008,0 39 -
11:17 23,7 8,9 9,7 ONO 11,3 1008,0 39 -
11:22 23,8 9,0 6,4 NO 8,0 1008,0 39 -
11:27 24,1 9,3   Kalm 6,4 1008,0 39 -
11:32 24,0 9,2 6,4 ONO 12,9 1007,7 39 -
11:37 23,8 9,0 1,4 NO 8,0 1007,7 39 -
11:42 23,7 8,9 3,2 Oosten 11,3 1007,7 39 -
11:47 23,6 9,2 6,4 ONO 6,4 1007,7 40 -
11:52 23,4 9,4 3,2 Noorden 8,0 1007,7 41 -
11:57 23,3 9,3 6,4 Noorden 12,9 1007,7 41 -
12:02 23,2 9,6 6,4 NNO 9,7 1007,7 42 -
12:07 23,3 9,3 4,7 Oosten 8,0 1007,7 41 -
12:12 23,5 9,5   Kalm 6,4 1007,7 41 -
12:17 23,6 9,6 1,4 NNW 8,0 1007,3 41 -
12:22 23,6 9,2 9,7 NNW 16,1 1007,3 40 -
12:27 23,3 9,3 3,2 NNW 8,0 1007,3 41 -
12:32 23,3 9,7 4,7 Oosten 14,5 1007,3 42 -
12:37 23,4 9,4 1,4 NO 6,4 1007,3 41 -
12:42 23,5 9,5 1,4 NO 9,7 1007,3 41 -
12:47 23,8 9,4 7,9 ONO 8,0 1007,3 40 -
12:52 23,8 9,8 6,4 OZO 9,7 1007,3 41 -
12:57 23,8 9,8 7,9 OZO 11,3 1007,3 41 -
13:02 23,9 10,2 3,2 NO 11,3 1007,3 42 -
13:07 24,3 9,8 6,4 ONO 14,5 1007,3 40 -
13:12 24,5 10,0 3,2 ZO 9,7 1007,3 40 -
13:17 25,1 10,2 1,4 Noorden 6,4 1007,3 39 -
13:22 25,3 10,0 13,0 ONO 12,9 1007,3 38 -
13:28 24,9 9,6 9,7 Noorden 14,5 1007,3 38 -
13:33 25,1 10,2 3,2 ONO 9,7 1007,3 39 -
13:38 25,1 9,8 9,7 ONO 12,9 1007,0 38 -
13:43 25,1 10,2 9,7 NNW 9,7 1007,0 39 -
13:48 25,6 10,2 7,9 Oosten 9,7 1007,0 38 -
13:53 25,3 10,0 4,7 NW 8,0 1007,0 38 -
13:58 25,1 9,8 3,2 Noorden 9,7 1006,7 38 -
14:03 24,9 10,0 7,9 NNO 9,7 1006,7 39 -

Download your copy of this data-set  here

Our weather-data as stored at Weather Underground. Script ontwikkeld door Jim McMurry. Aangepast voor de template door Leuven-Template.eu

U vindt ons ook hier:

Het Weer Aktueel

European Weather Network

Weather Underground

Apparatuur in gebruik:

Weerstation
Oregon WMR 200

Webleverancier
one.com

Oregon WMR 200

one.com